Regional Weather Roundup
Issued by NWS Little Rock, AR

Home | Current Version | Previous Version | Text Only | Print | Product List | Glossary On
Versions: 1 2 3 4 5 6 7 8 9 10 11 12 13 14 15 16 17 18 19 20 21 22 23 24 25 26 27 28 29 30 31 32 33 34 35 36 37 38 39 40 41 42 43 44 45 46 47 48 49 50
000
ASUS44 KLZK 280905
RWRLZK

WEATHER ROUNDUP FOR ARKANSAS
NATIONAL WEATHER SERVICE LITTLE ROCK AR
300 AM CST WED JAN 28 2015

NOTE: "FAIR" INDICATES FEW OR NO CLOUDS BELOW 12,000 FEET WITH NO
SIGNIFICANT WEATHER AND/OR OBSTRUCTIONS TO VISIBILITY.

ARZ001-003-010-029-281000-
NORTHWEST ARKANSAS

CITY           SKY/WX    TMP DP  RH WIND       PRES   REMARKS
FAYETTEVILLE   CLEAR     31  28  89 E3        30.10R
FORT SMITH     CLEAR     43  34  70 NE7       30.13R
HARRISON       CLEAR     40  31  70 SE13      30.13S
BENTONVILLE    CLEAR     43  28  56 SE6       30.09F
ROGERS         CLEAR     43  31  62 SE8       30.09F
SILOAM SPGS    CLEAR     46  27  46 S5        30.09S
HIGHFILL       CLEAR     43  30  60 SE6       30.08S
$$

ARZ004-005-016-281000-
NORTH CENTRAL ARKANSAS

CITY           SKY/WX    TMP DP  RH WIND       PRES   REMARKS
BATESVILLE     CLEAR     36  30  80 CALM      30.22S
FLIPPIN        CLEAR     39  30  70 E3        30.18R
MTN HOME       CLEAR     39  34  82 SE8       30.17S
$$

ARZ040-041-281000-
WEST CENTRAL ARKANSAS

CITY           SKY/WX    TMP DP  RH WIND       PRES   REMARKS
MENA           CLEAR     39  36  87 CALM      30.16S
MOUNT IDA      CLEAR     35  32  88 CALM      30.15R
$$

ARZ009-017-025-026-028-281000-
NORTHEAST ARKANSAS

CITY           SKY/WX    TMP DP  RH WIND       PRES   REMARKS
CORNING        FAIR      32  30  93 E5        30.27R WCI  27
JONESBORO      CLEAR     33  31  92 NE8       30.24S WCI  26
NEWPORT        CLEAR     34  33  96 NE5       30.24S WCI  30
WALNUT RIDGE   CLEAR     34  27  75 NE7       30.24S WCI  28
BLYTHEVILLE    CLEAR     33  28  81 E7        30.26R WCI  27
$$

ARZ022-023-033-042-044-281000-
CENTRAL ARKANSAS

CITY           SKY/WX    TMP DP  RH WIND       PRES   REMARKS
LITTLE ROCK    CLEAR     39  35  86 CALM      30.21S
N LITTLE ROCK    N/A     40  38  92 E3        30.21S
JACKSONVILLE   CLEAR     34  31  90 CALM      30.21R
SEARCY         CLEAR     37  34  89 NE6       30.24R
HOT SPRINGS    CLEAR     43  34  70 E5        30.19R
RUSSELLVILLE   CLEAR     47  36  65 E8        30.18R
CLINTON        FAIR      32  30  93 CALM      30.23S
$$

ARZ036-281000-
EAST ARKANSAS

CITY           SKY/WX    TMP DP  RH WIND       PRES   REMARKS
WEST MEMPHIS   CLEAR     35  31  85 E7        30.22S WCI  29
$$

ARZ050-053-066-070-073-281000-
SOUTHWEST ARKANSAS

CITY           SKY/WX    TMP DP  RH WIND       PRES   REMARKS
ARKADELPHIA    FAIR      39  37  92 NE3       30.20R
CAMDEN         CLEAR     36  32  87 CALM      30.19R
TEXARKANA      CLEAR     45  37  73 CALM      30.14S
EL DORADO      CLEAR     42  36  79 CALM      30.18R
DE QUEEN       CLEAR     37  35  92 E5        30.13S
$$

ARZ056-057-069-281000-
SOUTHEAST ARKANSAS

CITY           SKY/WX    TMP DP  RH WIND       PRES   REMARKS
PINE BLUFF     CLEAR     39  35  86 E3        30.20S
STUTTGART      CLEAR     41  34  75 E5        30.22R
MONTICELLO     CLEAR     42  36  79 E5        30.19S

$$





USA.gov is the U.S. government's official web portal to all federal, state and local government web resources and services.